When you browse on this site, cookies collect data to enhance your experience and personalize the content and advertising you see.
Visit our Privacy Policy to learn more. By continuing to use the site, you agree to this use of cookies and data.
  • In Deutschland
  • Länderverzeichnis
  • Für 7 Tage
  • Wassertemperatur
  • Satellitenkarten
  • Wetterkarte
  • Widgets
  • user-avatar
    Anmelden

    Stündliche Wetter Baunt

    Heute, 22 Februar, Freitag

    Zeit Temperatur Niederschläge Wind Luftdruck Luftfeuchtigkeit
    00:00 -13°C° 0 mm 2 m/S 665 mmHg 82%
    01:00 -14°C° 0 mm 2 m/S 665 mmHg 81%
    02:00 -14°C° 0 mm 2 m/S 665 mmHg 80%
    03:00 -12°C° 0 mm 1 m/S 665 mmHg 80%
    04:00 -12°C° 0 mm 1 m/S 665 mmHg 80%
    05:00 -13°C° 0 mm 1 m/S 664 mmHg 79%
    06:00 -13°C° 0 mm 1 m/S 664 mmHg 79%
    07:00 -13°C° 0 mm 1 m/S 664 mmHg 78%
    08:00 -14°C° 0 mm 1 m/S 664 mmHg 77%
    09:00 -12°C° 0 mm 1 m/S 664 mmHg 75%
    10:00 -9°C° 0 mm 1 m/S 664 mmHg 73%
    11:00 -7°C° 0 mm 1 m/S 664 mmHg 71%
    12:00 -6°C° 0 mm 1 m/S 664 mmHg 71%
    13:00 -4°C° 0 mm 1 m/S 663 mmHg 71%
    14:00 -3°C° 0 mm 1 m/S 663 mmHg 71%
    15:00 -4°C° 0 mm 1 m/S 663 mmHg 74%
    16:00 -6°C° 0 mm 1 m/S 662 mmHg 77%
    17:00 -7°C° 0 mm 1 m/S 662 mmHg 80%
    18:00 -7°C° 0 mm 1 m/S 662 mmHg 80%
    19:00 -8°C° 0 mm 1 m/S 662 mmHg 80%
    20:00 -9°C° 0 mm 2 m/S 662 mmHg 81%
    21:00 -9°C° 0 mm 2 m/S 662 mmHg 82%
    22:00 -9°C° 0 mm 2 m/S 662 mmHg 83%
    23:00 -9°C° 0 mm 2 m/S 662 mmHg 85%

    Morgen, 23 Februar, Samstag

    Zeit Temperatur Niederschläge Wind Luftdruck Luftfeuchtigkeit
    00:00 -10°C° 0 mm 2 m/S 662 mmHg 86%
    01:00 -12°C° 0 mm 2 m/S 662 mmHg 87%
    02:00 -12°C° 0 mm 2 m/S 662 mmHg 88%
    03:00 -12°C° 0 mm 2 m/S 662 mmHg 88%
    04:00 -13°C° 0 mm 3 m/S 662 mmHg 89%
    05:00 -14°C° 0 mm 3 m/S 662 mmHg 89%
    06:00 -14°C° 0 mm 3 m/S 662 mmHg 88%
    07:00 -15°C° 0 mm 3 m/S 663 mmHg 88%
    08:00 -15°C° 0 mm 2 m/S 663 mmHg 87%
    09:00 -14°C° 0 mm 3 m/S 663 mmHg 80%
    10:00 -14°C° 0 mm 4 m/S 664 mmHg 73%
    11:00 -13°C° 0 mm 5 m/S 664 mmHg 66%
    12:00 -14°C° 0 mm 6 m/S 664 mmHg 65%
    13:00 -14°C° 0 mm 6 m/S 664 mmHg 64%
    14:00 -14°C° 0 mm 6 m/S 664 mmHg 63%
    15:00 -14°C° 0 mm 5 m/S 663 mmHg 67%
    16:00 -15°C° 0 mm 4 m/S 663 mmHg 72%
    17:00 -14°C° 0 mm 2 m/S 663 mmHg 76%
    18:00 -15°C° 0 mm 2 m/S 663 mmHg 78%
    19:00 -17°C° 0 mm 2 m/S 663 mmHg 80%
    20:00 -19°C° 0 mm 2 m/S 663 mmHg 81%
    21:00 -19°C° 0 mm 2 m/S 664 mmHg 83%
    22:00 -20°C° 0 mm 2 m/S 664 mmHg 84%
    23:00 -20°C° 0 mm 2 m/S 664 mmHg 86%

    übermorgen, 24 Februar, Sonntag

    Zeit Temperatur Niederschläge Wind Luftdruck Luftfeuchtigkeit
    00:00 -20°C° 0 mm 2 m/S 664 mmHg 86%
    01:00 -21°C° 0 mm 2 m/S 664 mmHg 87%
    02:00 -21°C° 0 mm 2 m/S 664 mmHg 87%
    03:00 -21°C° 0 mm 2 m/S 664 mmHg 88%
    04:00 -23°C° 0 mm 2 m/S 664 mmHg 88%
    05:00 -23°C° 0 mm 2 m/S 663 mmHg 88%
    06:00 -23°C° 0 mm 2 m/S 663 mmHg 87%
    07:00 -24°C° 0 mm 2 m/S 663 mmHg 87%
    08:00 -21°C° 0 mm 1 m/S 663 mmHg 87%
    09:00 -18°C° 0 mm 1 m/S 663 mmHg 83%
    10:00 -18°C° 0 mm 2 m/S 664 mmHg 80%
    11:00 -16°C° 0 mm 2 m/S 664 mmHg 77%
    12:00 -15°C° 0 mm 2 m/S 664 mmHg 76%
    13:00 -13°C° 0 mm 2 m/S 663 mmHg 75%
    14:00 -12°C° 0 mm 2 m/S 663 mmHg 73%
    15:00 -13°C° 0 mm 2 m/S 662 mmHg 76%
    16:00 -13°C° 0 mm 2 m/S 662 mmHg 79%
    17:00 -14°C° 0 mm 2 m/S 662 mmHg 82%
    18:00 -15°C° 0 mm 2 m/S 661 mmHg 83%
    19:00 -16°C° 0 mm 2 m/S 661 mmHg 84%
    20:00 -18°C° 0 mm 2 m/S 661 mmHg 86%
    21:00 -18°C° 0 mm 2 m/S 660 mmHg 86%
    22:00 -18°C° 0 mm 2 m/S 660 mmHg 87%
    23:00 -18°C° 0 mm 2 m/S 660 mmHg 87%

    25 Februar, Montag

    Zeit Temperatur Niederschläge Wind Luftdruck Luftfeuchtigkeit
    00:00 -18°C° 0 mm 2 m/S 660 mmHg 87%
    01:00 -18°C° 0 mm 2 m/S 659 mmHg 87%
    02:00 -18°C° 0 mm 2 m/S 659 mmHg 87%
    03:00 -18°C° 0 mm 2 m/S 659 mmHg 87%
    04:00 -18°C° 0 mm 2 m/S 659 mmHg 87%
    05:00 -18°C° 0 mm 2 m/S 659 mmHg 87%
    06:00 -18°C° 0 mm 2 m/S 659 mmHg 87%
    07:00 -18°C° 0 mm 2 m/S 659 mmHg 87%
    08:00 -17°C° 0 mm 2 m/S 660 mmHg 87%
    09:00 -15°C° 0 mm 2 m/S 660 mmHg 85%
    10:00 -13°C° 0 mm 2 m/S 660 mmHg 84%
    11:00 -9°C° 0 mm 2 m/S 661 mmHg 82%
    12:00 -8°C° 0 mm 2 m/S 661 mmHg 80%
    13:00 -7°C° 0 mm 2 m/S 661 mmHg 79%
    14:00 -6°C° 0 mm 2 m/S 660 mmHg 77%
    15:00 -6°C° 0 mm 2 m/S 660 mmHg 79%
    16:00 -7°C° 0 mm 2 m/S 660 mmHg 81%
    17:00 -7°C° 0 mm 2 m/S 660 mmHg 83%
    18:00 -9°C° 0 mm 2 m/S 660 mmHg 84%
    19:00 -10°C° 0 mm 2 m/S 659 mmHg 84%
    20:00 -13°C° 0 mm 2 m/S 659 mmHg 85%
    21:00 -13°C° 0 mm 2 m/S 659 mmHg 85%
    22:00 -14°C° 0 mm 2 m/S 659 mmHg 85%
    23:00 -14°C° 0 mm 2 m/S 659 mmHg 85%

    26 Februar, Dienstag

    Zeit Temperatur Niederschläge Wind Luftdruck Luftfeuchtigkeit
    00:00 -14°C° 0 mm 2 m/S 659 mmHg 85%
    01:00 -15°C° 0 mm 2 m/S 659 mmHg 85%
    02:00 -15°C° 0 mm 2 m/S 659 mmHg 85%
    03:00 -15°C° 0 mm 2 m/S 659 mmHg 84%
    04:00 -15°C° 0 mm 2 m/S 659 mmHg 84%
    05:00 -15°C° 0 mm 2 m/S 659 mmHg 83%
    06:00 -16°C° 0 mm 2 m/S 660 mmHg 83%
    07:00 -16°C° 0 mm 2 m/S 660 mmHg 83%
    08:00 -17°C° 0 mm 2 m/S 660 mmHg 82%
    09:00 -15°C° 0 mm 2 m/S 661 mmHg 79%
    10:00 -13°C° 0 mm 2 m/S 661 mmHg 77%
    11:00 -10°C° 0 mm 2 m/S 662 mmHg 74%
    12:00 -10°C° 0 mm 3 m/S 662 mmHg 70%
    13:00 -9°C° 0 mm 3 m/S 662 mmHg 66%
    14:00 -9°C° 0 mm 3 m/S 662 mmHg 62%
    15:00 -10°C° 0 mm 3 m/S 662 mmHg 66%
    16:00 -10°C° 0 mm 2 m/S 662 mmHg 70%
    17:00 -12°C° 0 mm 2 m/S 661 mmHg 73%
    18:00 -14°C° 0 mm 2 m/S 662 mmHg 76%
    19:00 -15°C° 0 mm 2 m/S 662 mmHg 78%
    20:00 -17°C° 0 mm 2 m/S 662 mmHg 80%
    21:00 -18°C° 0 mm 2 m/S 662 mmHg 81%
    22:00 -19°C° 0 mm 2 m/S 662 mmHg 82%
    23:00 -17°C° 0 mm 1 m/S 662 mmHg 83%

    27 Februar, Mittwoch

    Zeit Temperatur Niederschläge Wind Luftdruck Luftfeuchtigkeit
    00:00 -18°C° 0 mm 1 m/S 662 mmHg 83%
    01:00 -18°C° 0 mm 1 m/S 662 mmHg 83%
    02:00 -18°C° 0 mm 1 m/S 662 mmHg 83%
    03:00 -18°C° 0 mm 1 m/S 662 mmHg 82%
    04:00 -19°C° 0 mm 1 m/S 662 mmHg 82%
    05:00 -19°C° 0 mm 1 m/S 662 mmHg 81%
    06:00 -19°C° 0 mm 1 m/S 662 mmHg 80%
    07:00 -19°C° 0 mm 1 m/S 662 mmHg 79%
    08:00 -19°C° 0 mm 1 m/S 662 mmHg 78%
    09:00 -16°C° 0 mm 1 m/S 662 mmHg 75%
    10:00 -14°C° 0 mm 1 m/S 663 mmHg 71%
    11:00 -11°C° 0 mm 1 m/S 663 mmHg 68%
    12:00 -10°C° 0 mm 1 m/S 662 mmHg 68%
    13:00 -9°C° 0 mm 1 m/S 662 mmHg 68%
    14:00 -8°C° 0 mm 1 m/S 662 mmHg 69%
    15:00 -9°C° 0 mm 1 m/S 661 mmHg 73%
    16:00 -9°C° 0 mm 1 m/S 661 mmHg 77%
    17:00 -10°C° 0 mm 1 m/S 661 mmHg 81%
    18:00 -11°C° 0.1 mm 1 m/S 661 mmHg 83%
    19:00 -12°C° 0.1 mm 1 m/S 661 mmHg 84%
    20:00 -13°C° 0.1 mm 1 m/S 661 mmHg 85%
    21:00 -13°C° 0 mm 1 m/S 661 mmHg 85%
    22:00 -14°C° 0 mm 1 m/S 661 mmHg 86%
    23:00 -15°C° 0 mm 1 m/S 660 mmHg 87%
    Mehr zeigen